Date,Installs,Update checks
2020-07-05,3,0
2020-07-06,10,1
2020-07-07,9,2
2020-07-08,21,4
2020-07-09,20,4
2020-07-10,13,8
2020-07-11,20,14
2020-07-12,9,19
2020-07-13,10,19
2020-07-14,7,24
2020-07-15,17,26
2020-07-16,12,19
2020-07-17,14,27
2020-07-18,9,22
2020-07-19,12,23
2020-07-20,8,34
2020-07-21,5,38
2020-07-22,5,38
2020-07-23,6,36
2020-07-24,7,33
2020-07-25,7,36
2020-07-26,10,37
2020-07-27,5,40
2020-07-28,4,43
2020-07-29,5,41
2020-07-30,11,39
2020-07-31,11,44
2020-08-01,12,44
2020-08-02,10,41
2020-08-03,8,56
2020-08-04,10,52
2020-08-05,6,57
2020-08-06,9,63
2020-08-07,6,59
2020-08-08,5,61
2020-08-09,6,53
2020-08-10,5,59
2020-08-11,5,61
2020-08-12,8,55
2020-08-13,6,58
2020-08-14,8,69
2020-08-15,7,59
2020-08-16,10,64
2020-08-17,8,64
2020-08-18,15,70
2020-08-19,6,71
2020-08-20,5,71
2020-08-21,5,76
2020-08-22,8,72
2020-08-23,7,69
2020-08-24,10,80
2020-08-25,3,78
2020-08-26,9,84
2020-08-27,11,91
2020-08-28,3,84
2020-08-29,4,83
2020-08-30,7,82
2020-08-31,6,85
2020-09-01,7,85
2020-09-02,2,91
2020-09-03,2,96
2020-09-04,3,93
2020-09-05,1,79
2020-09-06,1,88
2020-09-07,3,87
2020-09-08,3,91
2020-09-09,6,94
2020-09-10,2,83
2020-09-11,3,94
2020-09-12,6,79
2020-09-13,4,75
2020-09-14,2,94
2020-09-15,5,97
2020-09-16,4,98
2020-09-17,5,84
2020-09-18,3,88
2020-09-19,1,84
2020-09-20,0,74
2020-09-21,1,98
2020-09-22,3,89
2020-09-23,7,86
2020-09-24,6,99
2020-09-25,1,99
2020-09-26,6,87
2020-09-27,3,85
2020-09-28,2,98
2020-09-29,9,104
2020-09-30,4,90
2020-10-01,5,87
2020-10-02,7,95
2020-10-03,5,88
2020-10-04,4,83
2020-10-05,6,108
2020-10-06,3,91
2020-10-07,5,102
2020-10-08,4,99
2020-10-09,0,99
2020-10-10,26,114
2020-10-11,27,93
2020-10-12,26,117
2020-10-13,22,137
2020-10-14,30,143
2020-10-15,23,144
2020-10-16,36,151
2020-10-17,17,153
2020-10-18,33,143
2020-10-19,31,171
2020-10-20,34,160
2020-10-21,29,201
2020-10-22,29,213
2020-10-23,29,208
2020-10-24,20,199
2020-10-25,29,201
2020-10-26,26,221
2020-10-27,13,240
2020-10-28,18,256
2020-10-29,17,230
2020-10-30,12,238
2020-10-31,19,218
2020-11-01,24,226
2020-11-02,14,242
2020-11-03,25,261
2020-11-04,20,274
2020-11-05,28,268
2020-11-06,20,270
2020-11-07,15,245
2020-11-08,16,280
2020-11-09,23,309
2020-11-10,17,295
2020-11-11,14,287
2020-11-12,11,300
2020-11-13,25,312
2020-11-14,18,290
2020-11-15,16,282
2020-11-16,26,324
2020-11-17,41,358
2020-11-18,35,327
2020-11-19,24,361
2020-11-20,33,355
2020-11-21,36,373
2020-11-22,23,330
2020-11-23,31,384
2020-11-24,24,394
2020-11-25,23,381
2020-11-26,25,394
2020-11-27,19,427
2020-11-28,17,380
2020-11-29,25,372
2020-11-30,22,419
2020-12-01,40,424
2020-12-02,35,411
2020-12-03,35,448
2020-12-04,31,438
2020-12-05,22,421
2020-12-06,31,407
2020-12-07,34,490
2020-12-08,23,449
2020-12-09,33,482
2020-12-10,24,462
2020-12-11,38,496
2020-12-12,18,445
2020-12-13,25,463
2020-12-14,25,499
2020-12-15,40,507
2020-12-16,46,510
2020-12-17,53,537
2020-12-18,98,544
2020-12-19,70,538
2020-12-20,57,514
2020-12-21,54,616
2020-12-22,65,617
2020-12-23,62,656
2020-12-24,56,641
2020-12-25,55,657
2020-12-26,48,613
2020-12-27,29,633
2020-12-28,35,680
2020-12-29,48,738
2020-12-30,30,727
2020-12-31,23,709
2021-01-01,45,611
2021-01-02,46,654
2021-01-03,49,698
2021-01-04,54,801
2021-01-05,35,827
2021-01-06,46,813
2021-01-07,48,789
2021-01-08,38,832
2021-01-09,31,778
2021-01-10,34,748
2021-01-11,29,892
2021-01-12,31,830
2021-01-13,46,887
2021-01-14,23,883
2021-01-15,39,903
2021-01-16,46,831
2021-01-17,29,818
2021-01-18,45,1000
2021-01-19,45,989
2021-01-20,42,987
2021-01-21,33,993
2021-01-22,42,970
2021-01-23,44,897
2021-01-24,64,939
2021-01-25,51,1047
2021-01-26,41,1071
2021-01-27,34,1043
2021-01-28,33,1038
2021-01-29,29,1068
2021-01-30,54,861
2021-01-31,58,978
2021-02-01,59,1125
2021-02-02,55,1114
2021-02-03,82,1186
2021-02-04,66,1147
2021-02-05,68,1165
2021-02-06,57,1153
2021-02-07,55,1147
2021-02-08,52,1170
2021-02-09,60,925
2021-02-10,53,890
2021-02-11,71,901
2021-02-12,47,824
2021-02-13,49,788
2021-02-14,54,651
2021-02-15,57,1258
2021-02-16,53,1215
2021-02-17,65,1237
2021-02-18,54,1374
2021-02-19,47,1348
2021-02-20,47,1294
2021-02-21,61,1307
2021-02-22,54,1289
2021-02-23,50,1398
2021-02-24,48,1378
2021-02-25,52,1468
2021-02-26,40,1450
2021-02-27,48,1343
2021-02-28,49,1343
2021-03-01,47,1559
2021-03-02,44,1548
2021-03-03,54,1528
2021-03-04,46,1591
2021-03-05,33,1553
2021-03-06,40,1451
2021-03-07,40,1443
2021-03-08,31,1242
2021-03-09,45,1192
2021-03-10,28,1276
2021-03-11,35,1200
2021-03-12,42,1283
2021-03-13,41,1181
2021-03-14,39,1116
2021-03-15,52,1188
2021-03-16,50,1407
2021-03-17,40,1201
2021-03-18,47,1232
2021-03-19,52,1211
2021-03-20,40,1193
2021-03-21,33,948
2021-03-22,36,1196
2021-03-23,40,1086
2021-03-24,40,1206
2021-03-25,45,1406
2021-03-26,52,1226
2021-03-27,42,1098
2021-03-28,46,1104
2021-03-29,41,1182
2021-03-30,49,1326
2021-03-31,50,1096
2021-04-01,50,1330
2021-04-02,48,1150
2021-04-03,51,963
2021-04-04,45,1186
2021-04-05,69,1172
2021-04-06,51,1368
2021-04-07,61,1325
2021-04-08,47,1439
2021-04-09,40,1342
2021-04-10,42,1246
2021-04-11,47,1258
2021-04-12,68,1157
2021-04-13,61,1376
2021-04-14,52,1467
2021-04-15,55,1397
2021-04-16,54,2100
2021-04-17,41,1871
2021-04-18,48,1885
2021-04-19,47,2081
2021-04-20,59,2066
2021-04-21,61,2080
2021-04-22,54,2017
2021-04-23,56,2084
2021-04-24,48,1841
2021-04-25,56,2003
2021-04-26,59,2112
2021-04-27,51,2122
2021-04-28,63,2172
2021-04-29,49,2086
2021-04-30,42,2094
2021-05-01,58,1888
2021-05-02,48,1880
2021-05-03,61,2051
2021-05-04,51,2102
2021-05-05,54,2116
2021-05-06,44,2218
2021-05-07,60,2297
2021-05-08,68,2154
2021-05-09,68,2090
2021-05-10,52,2352
2021-05-11,64,2296
2021-05-12,77,2276
2021-05-13,69,2266
2021-05-14,83,2315
2021-05-15,94,2202
2021-05-16,73,2185
2021-05-17,83,2406
2021-05-18,98,2448
2021-05-19,103,2455
2021-05-20,105,2484
2021-05-21,132,2521
2021-05-22,92,2379
2021-05-23,143,2421
2021-05-24,116,2704
2021-05-25,95,2758
2021-05-26,112,2774
2021-05-27,98,2795
2021-05-28,96,2752
2021-05-29,85,2577
2021-05-30,89,2503
2021-05-31,84,2856
2021-06-01,69,2744
2021-06-02,52,2887
2021-06-03,58,2808
2021-06-04,70,2761
2021-06-05,42,2083
2021-06-06,96,2675
2021-06-07,68,2832
2021-06-08,63,2930
2021-06-09,66,2917
2021-06-10,45,2958
2021-06-11,60,2941
2021-06-12,49,2696
2021-06-13,67,2659
2021-06-14,51,2805
2021-06-15,55,3079
2021-06-16,51,3011
2021-06-17,49,3075
2021-06-18,48,3081
2021-06-19,48,2798
2021-06-20,34,2801
2021-06-21,35,3113
2021-06-22,59,3100
2021-06-23,42,3102
2021-06-24,52,3121
2021-06-25,33,3055
2021-06-26,44,2776
2021-06-27,42,2725
2021-06-28,46,3106
2021-06-29,54,3043
2021-06-30,46,3082
2021-07-01,54,3068
2021-07-02,39,3088
2021-07-03,39,2830
2021-07-04,44,2727
2021-07-05,38,3041
2021-07-06,46,3122
2021-07-07,42,3097
2021-07-08,34,3117
2021-07-09,40,3036
2021-07-10,28,2771
2021-07-11,43,2679
2021-07-12,55,3102
2021-07-13,64,3120
2021-07-14,70,3129
2021-07-15,60,3113
2021-07-16,65,3137
2021-07-17,69,2876
2021-07-18,63,135
2021-07-19,47,876
2021-07-20,68,3310
2021-07-21,80,3082
2021-07-22,80,3163
2021-07-23,91,3142
2021-07-24,74,2928
2021-07-25,56,2945
2021-07-26,71,3328
2021-07-27,68,3293
2021-07-28,61,3290
2021-07-29,57,3369
2021-07-30,58,3255
2021-07-31,69,3055
2021-08-01,53,2903
2021-08-02,62,3385
2021-08-03,59,3387
2021-08-04,58,3382
2021-08-05,79,3391
2021-08-06,843,3665
2021-08-07,1381,4182
2021-08-08,869,4529
2021-08-09,615,5224
2021-08-10,417,5337
2021-08-11,311,5476
2021-08-12,209,5586
2021-08-13,197,5676
2021-08-14,145,5282
2021-08-15,155,5253
2021-08-16,136,5717
2021-08-17,118,5718
2021-08-18,138,5973
2021-08-19,114,5747
2021-08-20,123,5709
2021-08-21,103,5338
2021-08-22,131,5310
2021-08-23,120,5904
2021-08-24,101,5918
2021-08-25,113,5903
2021-08-26,102,5862
2021-08-27,106,5900
2021-08-28,107,5434
2021-08-29,89,5440
2021-08-30,101,6020
2021-08-31,108,5997
2021-09-01,108,6015
2021-09-02,113,5986
2021-09-03,110,5951
2021-09-04,105,5352
2021-09-05,101,5357
2021-09-06,106,5922
2021-09-07,111,5788
2021-09-08,90,6019
2021-09-09,80,5927
2021-09-10,92,5945
2021-09-11,99,5625
2021-09-12,109,5492
2021-09-13,93,6108
2021-09-14,101,6120
2021-09-15,82,6080
2021-09-16,114,6069
2021-09-17,184,6040
2021-09-18,167,5820
2021-09-19,151,5482
2021-09-20,133,5702
2021-09-21,147,5720
2021-09-22,139,6383
2021-09-23,138,6377
2021-09-24,109,6416
2021-09-25,94,5971
2021-09-26,109,6152
2021-09-27,108,6529
2021-09-28,252,6483
2021-09-29,253,6607
2021-09-30,118,6451
2021-10-01,131,5837
2021-10-02,165,5654
2021-10-03,91,5677
2021-10-04,98,6038
2021-10-05,128,6216
2021-10-06,140,6389
2021-10-07,114,6459
2021-10-08,120,6874
2021-10-09,143,6627
2021-10-10,121,6270
2021-10-11,117,6971
2021-10-12,115,7036
2021-10-13,152,7006
2021-10-14,110,7006
2021-10-15,93,7083
2021-10-16,91,6412
2021-10-17,93,6305
2021-10-18,84,7115
2021-10-19,83,6967
2021-10-20,97,7004
2021-10-21,88,7057
2021-10-22,102,7022
2021-10-23,40,6496
2021-10-24,97,6403
2021-10-25,173,7306
2021-10-26,159,7318
2021-10-27,164,7362
2021-10-28,103,7373
2021-10-29,119,7279
2021-10-30,103,6673
2021-10-31,122,6608
2021-11-01,120,7441
2021-11-02,103,7427
2021-11-03,123,7418
2021-11-04,92,7324
2021-11-05,104,7398
2021-11-06,147,6848
2021-11-07,108,6687
2021-11-08,115,7456
2021-11-09,127,7549
2021-11-10,100,7517
2021-11-11,95,7557
2021-11-12,97,7496
2021-11-13,87,6753
2021-11-14,81,6744
2021-11-15,101,7560
2021-11-16,94,7535
2021-11-17,96,7610
2021-11-18,102,7424
2021-11-19,99,7599
2021-11-20,116,6977
2021-11-21,95,6598
2021-11-22,179,7407
2021-11-23,241,7664
2021-11-24,137,7503
2021-11-25,198,7596
2021-11-26,202,7768
2021-11-27,116,6891
2021-11-28,128,6990
2021-11-29,112,7849
2021-11-30,128,8001
2021-12-01,123,7852
2021-12-02,112,7859
2021-12-03,105,7731
2021-12-04,109,7183
2021-12-05,117,7019
2021-12-06,118,7934
2021-12-07,121,7893
2021-12-08,118,7974
2021-12-09,135,8016
2021-12-10,105,7888
2021-12-11,134,7248
2021-12-12,121,7104
2021-12-13,114,8113
2021-12-14,96,8020
2021-12-15,97,8072
2021-12-16,101,7955
2021-12-17,103,7972
2021-12-18,104,7211
2021-12-19,101,7128
2021-12-20,92,8130
2021-12-21,96,8041
2021-12-22,106,8015
2021-12-23,91,8004
2021-12-24,81,7747
2021-12-25,76,7112
2021-12-26,105,7004
2021-12-27,79,8077
2021-12-28,89,7949
2021-12-29,100,8118
2021-12-30,88,7921
2021-12-31,73,7450
2022-01-01,85,6866
2022-01-02,103,6999
2022-01-03,111,7453
2022-01-04,113,8186
2022-01-05,90,8036
2022-01-06,89,8128
2022-01-07,84,8026
2022-01-08,81,7467
2022-01-09,89,473
2022-01-10,107,0
2022-01-11,128,8600
2022-01-12,96,8056
2022-01-13,109,8164
2022-01-14,103,8069
2022-01-15,87,7563
2022-01-16,87,7486
2022-01-17,104,8194
2022-01-18,113,8268
2022-01-19,115,8161
2022-01-20,135,8302
2022-01-21,123,8183
2022-01-22,141,7578
2022-01-23,115,7404
2022-01-24,113,8217
2022-01-25,104,8104
2022-01-26,92,8087
2022-01-27,90,7908
2022-01-28,112,7740
2022-01-29,111,7178
2022-01-30,82,6846
2022-01-31,79,6675
2022-02-01,93,6657
2022-02-02,89,6670
2022-02-03,103,6788
2022-02-04,105,6874
2022-02-05,97,6892
2022-02-06,116,7117
2022-02-07,134,8077
2022-02-08,163,8187
2022-02-09,137,8380
2022-02-10,127,8369
2022-02-11,123,8401
2022-02-12,142,7815
2022-02-13,154,7661
2022-02-14,145,8531
2022-02-15,128,8494
2022-02-16,139,8618
2022-02-17,118,8658
2022-02-18,154,8624
2022-02-19,137,7864
2022-02-20,134,7781
2022-02-21,165,8693
2022-02-22,127,8817
2022-02-23,134,8745
2022-02-24,126,8659
2022-02-25,118,8800
2022-02-26,141,8015
2022-02-27,136,7806
2022-02-28,159,8832
2022-03-01,129,8850
2022-03-02,123,8850
2022-03-03,138,8759
2022-03-04,143,8776
2022-03-05,141,8086
2022-03-06,125,8017
2022-03-07,144,8904
2022-03-08,142,8931
2022-03-09,127,9118
2022-03-10,122,9003
2022-03-11,143,9034
2022-03-12,143,8325
2022-03-13,151,8238
2022-03-14,141,9046
2022-03-15,141,9101
2022-03-16,138,9185
2022-03-17,146,9134
2022-03-18,160,9253
2022-03-19,130,8581
2022-03-20,153,8548
2022-03-21,137,9392
2022-03-22,144,9308
2022-03-23,138,9528
2022-03-24,133,9452
2022-03-25,128,9598
2022-03-26,124,8702
2022-03-27,96,8363
2022-03-28,137,9540
2022-03-29,123,9462
2022-03-30,112,9499
2022-03-31,132,9687
2022-04-01,117,9457
2022-04-02,124,9054
2022-04-03,122,8485
2022-04-04,174,8799
2022-04-05,152,8768
2022-04-06,132,9621
2022-04-07,142,9630
2022-04-08,147,9576
2022-04-09,115,8982
2022-04-10,130,8757
2022-04-11,147,9541
2022-04-12,160,9806
2022-04-13,160,9736
2022-04-14,134,9602
2022-04-15,127,9575
2022-04-16,168,8905
2022-04-17,136,8734
2022-04-18,129,9551
2022-04-19,130,9804
2022-04-20,120,9677
2022-04-21,122,9734
2022-04-22,128,9794
2022-04-23,136,8891
2022-04-24,124,9354
2022-04-25,129,9910
2022-04-26,123,9903
2022-04-27,125,9800
2022-04-28,117,9746
2022-04-29,122,9729
2022-04-30,105,8744
2022-05-01,122,8520
2022-05-02,121,8860
2022-05-03,107,9007
2022-05-04,119,9318
2022-05-05,120,9656
2022-05-06,119,9920
2022-05-07,133,9737
2022-05-08,131,8947
2022-05-09,123,9930
2022-05-10,140,9969
2022-05-11,127,10287
2022-05-12,123,10065
2022-05-13,112,10312
2022-05-14,107,9388
2022-05-15,111,8996
2022-05-16,118,9931
2022-05-17,126,10109
2022-05-18,109,10003
2022-05-19,114,9903
2022-05-20,80,9911
2022-05-21,109,9123
2022-05-22,119,9155
2022-05-23,115,10084
2022-05-24,118,10003
2022-05-25,125,9846
2022-05-26,117,10098
2022-05-27,127,9983
2022-05-28,113,9288
2022-05-29,104,9109
2022-05-30,93,10290
2022-05-31,148,10000
2022-06-01,217,10028
2022-06-02,237,10082
2022-06-03,217,9007
2022-06-04,198,8879
2022-06-05,179,9234
2022-06-06,146,10485
2022-06-07,151,10440
2022-06-08,120,10510
2022-06-09,124,10399
2022-06-10,106,10335
2022-06-11,127,9400
2022-06-12,167,9325
2022-06-13,152,10444
2022-06-14,177,10486
2022-06-15,121,9968
2022-06-16,125,10458
2022-06-17,136,10298
2022-06-18,145,9414
2022-06-19,126,9309
2022-06-20,136,10459
2022-06-21,155,10381
2022-06-22,137,10538
2022-06-23,124,10398
2022-06-24,127,10327
2022-06-25,112,9405
2022-06-26,131,9295
2022-06-27,128,10529
2022-06-28,120,10421
2022-06-29,118,10562
2022-06-30,129,10482
2022-07-01,131,10348
2022-07-02,130,9416
2022-07-03,123,9335
2022-07-04,123,10526
2022-07-05,123,10447
2022-07-06,113,10485
2022-07-07,120,10512
2022-07-08,116,10311
2022-07-09,117,9245
2022-07-10,116,9327
2022-07-11,120,10375
2022-07-12,113,10364
2022-07-13,100,10358
2022-07-14,109,10454
2022-07-15,110,10229
2022-07-16,115,9270
2022-07-17,123,9311
2022-07-18,137,10476
2022-07-19,132,10502
2022-07-20,105,10475
2022-07-21,109,10485
2022-07-22,112,10295
2022-07-23,122,9516
2022-07-24,137,6744
2022-07-25,121,10855
2022-07-26,99,10500
2022-07-27,130,10508
2022-07-28,139,10581
2022-07-29,133,10617
2022-07-30,95,8936
2022-07-31,102,9545
2022-08-01,114,10649
2022-08-02,136,10836
2022-08-03,130,10471
2022-08-04,139,10581
2022-08-05,126,10467
2022-08-06,133,9421
2022-08-07,100,9499
2022-08-08,115,10623
2022-08-09,121,10640
2022-08-10,107,10627
2022-08-11,111,10634
2022-08-12,115,10513
2022-08-13,124,9529
2022-08-14,103,9432
2022-08-15,120,10417
2022-08-16,130,10601
2022-08-17,126,10614
2022-08-18,126,10546
2022-08-19,188,10416
2022-08-20,263,9653
2022-08-21,167,9641
2022-08-22,167,10995
2022-08-23,120,10841
2022-08-24,120,10900
2022-08-25,143,10880
2022-08-26,155,10873
2022-08-27,114,9804
2022-08-28,116,9718
2022-08-29,133,11080
2022-08-30,110,11181
2022-08-31,128,11001
2022-09-01,110,11118
2022-09-02,110,10969
2022-09-03,103,10177
2022-09-04,140,9968
2022-09-05,126,11197
2022-09-06,114,11204
2022-09-07,102,11220
2022-09-08,118,11044
2022-09-09,113,10892
2022-09-10,98,9507
2022-09-11,108,9808
2022-09-12,131,10436
2022-09-13,111,11384
2022-09-14,129,11480
2022-09-15,124,11336
2022-09-16,104,11231
2022-09-17,130,10233
2022-09-18,132,9993
2022-09-19,129,11387
2022-09-20,128,11286
2022-09-21,127,11227
2022-09-22,112,11225
2022-09-23,109,11358
2022-09-24,110,10249
2022-09-25,122,10139
2022-09-26,145,11200
2022-09-27,137,11378
2022-09-28,119,11272
2022-09-29,129,11084
2022-09-30,114,11112
2022-10-01,123,9496
2022-10-02,116,9560
2022-10-03,103,9975
2022-10-04,110,10166
2022-10-05,123,10283
2022-10-06,112,10573
2022-10-07,136,10663
2022-10-08,115,10999
2022-10-09,157,10741
2022-10-10,107,11228
2022-10-11,136,11441
2022-10-12,128,11434
2022-10-13,94,11490
2022-10-14,114,11518
2022-10-15,119,10366
2022-10-16,111,10426
2022-10-17,129,11615
2022-10-18,133,11496
2022-10-19,131,11648
2022-10-20,164,11492
2022-10-21,133,11542
2022-10-22,153,10607
2022-10-23,157,10404
2022-10-24,150,11986
2022-10-25,144,11633
2022-10-26,147,11659
2022-10-27,166,11825
2022-10-28,145,11512
2022-10-29,132,10547
2022-10-30,143,10485
2022-10-31,129,11717
2022-11-01,123,11501
2022-11-02,127,11804
2022-11-03,126,11807
2022-11-04,164,11599
2022-11-05,139,10676
2022-11-06,133,10582
2022-11-07,136,11737
2022-11-08,165,11702
2022-11-09,154,11719
2022-11-10,142,11719
2022-11-11,134,11595
2022-11-12,139,10559
2022-11-13,143,10506
2022-11-14,140,11826
2022-11-15,118,11550
2022-11-16,145,11777
2022-11-17,136,10662
2022-11-18,163,10672
2022-11-19,160,9673
2022-11-20,159,9963
2022-11-21,112,11033
2022-11-22,127,11630
2022-11-23,134,11625
2022-11-24,152,11612
2022-11-25,153,11308
2022-11-26,135,10121
2022-11-27,142,9988
2022-11-28,128,11494
2022-11-29,149,11405
2022-11-30,135,11075
2022-12-01,171,11198
2022-12-02,155,11073
2022-12-03,137,10139
2022-12-04,177,10082
2022-12-05,158,11015
2022-12-06,164,11220
2022-12-07,153,11324
2022-12-08,122,11367
2022-12-09,120,10994
2022-12-10,123,9911
2022-12-11,129,9691
2022-12-12,129,10955
2022-12-13,148,10432
2022-12-14,145,9867
2022-12-15,138,11108
2022-12-16,145,10118
2022-12-17,166,8891
2022-12-18,136,9340
2022-12-19,126,10585
2022-12-20,122,10031
2022-12-21,113,9437
2022-12-22,131,10036
2022-12-23,119,10097
2022-12-24,126,8654
2022-12-25,101,9692
2022-12-26,114,10282
2022-12-27,102,10724
2022-12-28,106,10569
2022-12-29,122,10283
2022-12-30,112,10759
2022-12-31,112,8795
2023-01-01,153,9228
2023-01-02,173,10526
2023-01-03,156,11892
2023-01-04,162,11833
2023-01-05,140,11979
2023-01-06,133,11833
2023-01-07,114,10805
2023-01-08,150,10773
2023-01-09,135,12079
2023-01-10,134,12063
2023-01-11,136,11985
2023-01-12,104,11986
2023-01-13,108,11796
2023-01-14,96,10774
2023-01-15,107,10600
2023-01-16,96,11593
2023-01-17,115,11444
2023-01-18,121,11070
2023-01-19,101,10774
2023-01-20,113,10135
2023-01-21,119,9192
2023-01-22,138,9152
2023-01-23,104,9563
2023-01-24,123,9747
2023-01-25,124,9937
2023-01-26,97,10124
2023-01-27,128,10271
2023-01-28,153,10714
2023-01-29,117,11052
2023-01-30,130,12012
2023-01-31,127,12071
2023-02-01,130,12152
2023-02-02,142,12105
2023-02-03,135,12148
2023-02-04,128,11077
2023-02-05,139,10830
2023-02-06,115,12524
2023-02-07,122,12334
2023-02-08,118,12405
2023-02-09,126,12303
2023-02-10,131,12251
2023-02-11,122,11091
2023-02-12,144,11120
2023-02-13,130,12436
2023-02-14,116,12322
2023-02-15,137,12418
2023-02-16,125,12504
2023-02-17,164,12220
2023-02-18,132,11294
2023-02-19,148,11061
2023-02-20,133,12602
2023-02-21,132,12578
2023-02-22,133,12651
2023-02-23,119,12562
2023-02-24,127,12480
2023-02-25,110,11170
2023-02-26,137,11048
2023-02-27,127,12561
2023-02-28,125,12507
2023-03-01,113,12693
2023-03-02,126,12502
2023-03-03,121,12506
2023-03-04,110,11181
2023-03-05,110,11303
2023-03-06,150,12770
2023-03-07,118,12656
2023-03-08,119,12559
2023-03-09,102,12675
2023-03-10,134,12687
2023-03-11,120,11277
2023-03-12,120,11227
2023-03-13,111,12977
2023-03-14,138,12647
2023-03-15,102,12630
2023-03-16,131,12409
2023-03-17,116,12399
2023-03-18,95,10909
2023-03-19,108,10900
2023-03-20,133,12871
2023-03-21,122,12597
2023-03-22,114,12694
2023-03-23,133,12673
2023-03-24,129,12358
2023-03-25,113,11491
2023-03-26,135,11209
2023-03-27,161,12857
2023-03-28,130,12658
2023-03-29,148,12363
2023-03-30,142,12689
2023-03-31,163,12513
2023-04-01,115,11301
2023-04-02,147,11092
2023-04-03,129,12760
2023-04-04,128,12646
2023-04-05,127,11715
2023-04-06,115,12746
2023-04-07,130,12352
2023-04-08,140,11299
2023-04-09,124,11208
2023-04-10,153,12741
2023-04-11,138,12967
2023-04-12,132,12848
2023-04-13,112,12722
2023-04-14,125,12646
2023-04-15,115,11429
2023-04-16,132,11285
2023-04-17,123,12935
2023-04-18,155,12786
2023-04-19,124,12714
2023-04-20,114,12669
2023-04-21,151,12419
2023-04-22,105,11353
2023-04-23,126,11998
2023-04-24,140,12708
2023-04-25,130,12792
2023-04-26,124,12629
2023-04-27,142,12705
2023-04-28,139,12406
2023-04-29,118,10875
2023-04-30,146,10546
2023-05-01,151,10680
2023-05-02,110,11527
2023-05-03,117,11889
2023-05-04,101,12763
2023-05-05,127,12779
2023-05-06,110,12169
2023-05-07,135,11325
2023-05-08,126,12772
2023-05-09,94,12703
2023-05-10,107,12781
2023-05-11,106,12674
2023-05-12,118,12601
2023-05-13,147,11447
2023-05-14,145,11228
2023-05-15,92,12857
2023-05-16,112,12780
2023-05-17,117,12834
2023-05-18,116,12775
2023-05-19,124,12646
2023-05-20,104,11423
2023-05-21,95,11256
2023-05-22,97,12881
2023-05-23,109,12727
2023-05-24,119,12862
2023-05-25,100,12783
2023-05-26,126,12551
2023-05-27,97,11299
2023-05-28,121,11329
2023-05-29,127,12760
2023-05-30,115,12863
2023-05-31,110,12800
2023-06-01,116,12633
2023-06-02,105,12607
2023-06-03,113,11498
2023-06-04,109,11329
2023-06-05,108,12927
2023-06-06,124,12849
2023-06-07,113,12780
2023-06-08,122,12787
2023-06-09,112,12597
2023-06-10,104,11451
2023-06-11,120,11317
2023-06-12,155,12919
2023-06-13,159,12811
2023-06-14,125,12739
2023-06-15,138,12669
2023-06-16,120,12407
2023-06-17,143,11438
2023-06-18,117,11152
2023-06-19,121,12740
2023-06-20,125,12605
2023-06-21,119,12351
2023-06-22,133,11112
2023-06-23,100,11233
2023-06-24,118,11165
2023-06-25,118,12162
2023-06-26,114,12651
2023-06-27,165,12545
2023-06-28,129,12530
2023-06-29,128,12327
2023-06-30,140,12383
2023-07-01,139,11219
2023-07-02,151,11028
2023-07-03,152,12627
2023-07-04,127,12727
2023-07-05,142,12652
2023-07-06,146,12609
2023-07-07,132,12410
2023-07-08,131,11202
2023-07-09,162,11124
2023-07-10,147,12831
2023-07-11,118,12621
2023-07-12,118,12683
2023-07-13,131,12542
2023-07-14,108,12453
2023-07-15,123,11179
2023-07-16,104,11049
2023-07-17,140,12562
2023-07-18,115,12749
2023-07-19,123,12558
2023-07-20,122,12507
2023-07-21,124,12248
2023-07-22,125,10992
2023-07-23,127,11169
2023-07-24,139,12572
2023-07-25,143,12673
2023-07-26,136,12510
2023-07-27,141,12559
2023-07-28,154,12330
2023-07-29,151,11321
2023-07-30,124,11208
2023-07-31,127,12722
2023-08-01,136,12530
2023-08-02,116,12568
2023-08-03,112,12549
2023-08-04,114,12342
2023-08-05,119,11211
2023-08-06,114,11069
2023-08-07,122,12695
2023-08-08,95,12562
2023-08-09,106,12505
2023-08-10,98,12360
2023-08-11,93,12272
2023-08-12,111,11028
2023-08-13,103,11048
2023-08-14,114,12548
2023-08-15,136,12462
2023-08-16,142,12511
2023-08-17,126,12474
2023-08-18,121,12405
2023-08-19,115,11093
2023-08-20,113,11158
2023-08-21,126,12670
2023-08-22,130,12489
2023-08-23,144,12612
2023-08-24,121,12603
2023-08-25,125,12390
2023-08-26,126,11304
2023-08-27,113,11075
2023-08-28,147,12766
2023-08-29,136,12858
2023-08-30,144,12711
2023-08-31,104,12635
2023-09-01,114,12657
2023-09-02,150,11607
2023-09-03,121,11335
2023-09-04,142,12872
2023-09-05,112,12764
2023-09-06,99,12838
2023-09-07,94,12794
2023-09-08,126,12622
2023-09-09,128,11497
2023-09-10,121,11448
2023-09-11,128,12945
2023-09-12,110,12855
2023-09-13,100,12961
2023-09-14,107,12822
2023-09-15,105,12696
2023-09-16,125,11438
2023-09-17,104,11434
2023-09-18,102,12967
2023-09-19,94,12859
2023-09-20,126,12739
2023-09-21,112,12763
2023-09-22,85,12694
2023-09-23,94,11475
2023-09-24,110,11509
2023-09-25,101,12833
2023-09-26,110,12849
2023-09-27,127,12601
2023-09-28,110,12355
2023-09-29,116,10824
2023-09-30,95,10633
2023-10-01,104,10706
2023-10-02,111,11170
2023-10-03,114,11287
2023-10-04,107,11507
2023-10-05,113,11913
2023-10-06,117,12054
2023-10-07,117,12460
2023-10-08,118,12267
2023-10-09,111,12798
2023-10-10,104,12998
2023-10-11,134,12939
2023-10-12,123,13133
2023-10-13,101,12870
2023-10-14,100,11444
2023-10-15,121,11494
2023-10-16,135,13217
2023-10-17,118,13076
2023-10-18,111,13065
2023-10-19,146,12979
2023-10-20,119,12905
2023-10-21,128,11757
2023-10-22,131,11670
2023-10-23,133,13278
2023-10-24,135,13107
2023-10-25,105,12973
2023-10-26,131,12993
2023-10-27,106,12753
2023-10-28,136,11646
2023-10-29,130,11443
2023-10-30,104,13130
2023-10-31,131,13174
2023-11-01,141,13206
2023-11-02,124,13243
2023-11-03,135,13067
2023-11-04,115,11838